Terug naar catalogus

GARAI-A

ActiefWetenschapSSO
NORAD 62635·PAYLOAD·🇪🇸 Spain

Gelanceerd Jan 14, 2025 vanaf Vandenberg Space Force Base

Loading…

Volgende Passages (komende 24 uur)

TLE

VersSource: Space-Track

Epoch: Sep 14, 2026, 12:16 UTC

1 62635U 25009AC  26257.51172134  .00004531  00000-0  22217-3 0  9994
2 62635  97.3885 335.3177 0002907  48.7762 311.3723 15.18614203 92333

Volg GARAI-A in realtime met AllMySat

Download on the App Store